owner,sensor,date,latitude,longitude,vertical_datum,sea_water_practical_salinity,qcFlag 
ENP,ioos.station.NOAA.NDBC:PKYF1:1,2017-10-01T00:00:00Z,24.9180,-80.7470,1.5,35.47,1111122 
ENP,ioos.station.NOAA.NDBC:PKYF1:1,2017-10-01T01:00:00Z,24.9180,-80.7470,1.5,35.47,1111122 
ENP,ioos.station.NOAA.NDBC:PKYF1:1,2017-10-01T03:00:00Z,24.9180,-80.7470,1.5,35.47,1111122 
ENP,ioos.station.NOAA.NDBC:PKYF1:1,2017-10-01T04:00:00Z,24.9180,-80.7470,1.5,35.54,1111122 
ENP,ioos.station.NOAA.NDBC:PKYF1:1,2017-10-01T06:00:00Z,24.9180,-80.7470,1.5,35.54,1111122 
ENP,ioos.station.NOAA.NDBC:PKYF1:1,2017-10-01T07:00:00Z,24.9180,-80.7470,1.5,35.54,1111122 
ENP,ioos.station.NOAA.NDBC:PKYF1:1,2017-10-01T08:00:00Z,24.9180,-80.7470,1.5,35.54,1111122 
ENP,ioos.station.NOAA.NDBC:PKYF1:1,2017-10-01T09:00:00Z,24.9180,-80.7470,1.5,35.47,1111122 
ENP,ioos.station.NOAA.NDBC:PKYF1:1,2017-10-01T12:00:00Z,24.9180,-80.7470,1.5,35.4,1111122 
ENP,ioos.station.NOAA.NDBC:PKYF1:1,2017-10-01T13:00:00Z,24.9180,-80.7470,1.5,35.4,1111122 
ENP,ioos.station.NOAA.NDBC:PKYF1:1,2017-10-01T14:00:00Z,24.9180,-80.7470,1.5,35.4,1111122 
ENP,ioos.station.NOAA.NDBC:PKYF1:1,2017-10-01T15:00:00Z,24.9180,-80.7470,1.5,35.4,1111122 
ENP,ioos.station.NOAA.NDBC:PKYF1:1,2017-10-01T16:00:00Z,24.9180,-80.7470,1.5,35.4,1111122 
ENP,ioos.station.NOAA.NDBC:PKYF1:1,2017-10-01T17:00:00Z,24.9180,-80.7470,1.5,35.32,1111122 
ENP,ioos.station.NOAA.NDBC:PKYF1:1,2017-10-01T18:00:00Z,24.9180,-80.7470,1.5,35.25,1111122 
ENP,ioos.station.NOAA.NDBC:PKYF1:1,2017-10-01T19:00:00Z,24.9180,-80.7470,1.5,35.17,1111122 
ENP,ioos.station.NOAA.NDBC:PKYF1:1,2017-10-01T20:00:00Z,24.9180,-80.7470,1.5,35.1,1111122 
ENP,ioos.station.NOAA.NDBC:PKYF1:1,2017-10-01T21:00:00Z,24.9180,-80.7470,1.5,35.1,1111122 
ENP,ioos.station.NOAA.NDBC:PKYF1:1,2017-10-01T22:00:00Z,24.9180,-80.7470,1.5,35.1,1111122 
ENP,ioos.station.NOAA.NDBC:PKYF1:1,2017-10-01T23:00:00Z,24.9180,-80.7470,1.5,35.1,1111122 
ENP,ioos.station.NOAA.NDBC:PKYF1:1,2017-10-02T00:00:00Z,24.9180,-80.7470,1.5,35.03,1111122 
ENP,ioos.station.NOAA.NDBC:PKYF1:1,2017-10-02T01:00:00Z,24.9180,-80.7470,1.5,34.95,1111122 
ENP,ioos.station.NOAA.NDBC:PKYF1:1,2017-10-02T03:00:00Z,24.9180,-80.7470,1.5,34.88,1111122 
ENP,ioos.station.NOAA.NDBC:PKYF1:1,2017-10-02T04:00:00Z,24.9180,-80.7470,1.5,34.95,1111122 
ENP,ioos.station.NOAA.NDBC:PKYF1:1,2017-10-02T05:00:00Z,24.9180,-80.7470,1.5,34.95,1111122 
ENP,ioos.station.NOAA.NDBC:PKYF1:1,2017-10-02T07:00:00Z,24.9180,-80.7470,1.5,35.1,1111122 
ENP,ioos.station.NOAA.NDBC:PKYF1:1,2017-10-02T08:00:00Z,24.9180,-80.7470,1.5,35.1,1111122 
ENP,ioos.station.NOAA.NDBC:PKYF1:1,2017-10-02T09:00:00Z,24.9180,-80.7470,1.5,34.95,1111122 
ENP,ioos.station.NOAA.NDBC:PKYF1:1,2017-10-02T11:00:00Z,24.9180,-80.7470,1.5,34.73,1111122 
ENP,ioos.station.NOAA.NDBC:PKYF1:1,2017-10-02T12:00:00Z,24.9180,-80.7470,1.5,34.73,1111122 
ENP,ioos.station.NOAA.NDBC:PKYF1:1,2017-10-02T13:00:00Z,24.9180,-80.7470,1.5,34.73,1111122 
ENP,ioos.station.NOAA.NDBC:PKYF1:1,2017-10-02T14:00:00Z,24.9180,-80.7470,1.5,34.73,1111122 
ENP,ioos.station.NOAA.NDBC:PKYF1:1,2017-10-02T15:00:00Z,24.9180,-80.7470,1.5,34.66,1111122 
ENP,ioos.station.NOAA.NDBC:PKYF1:1,2017-10-02T16:00:00Z,24.9180,-80.7470,1.5,34.73,1111122 
ENP,ioos.station.NOAA.NDBC:PKYF1:1,2017-10-02T17:00:00Z,24.9180,-80.7470,1.5,34.66,1111122 
ENP,ioos.station.NOAA.NDBC:PKYF1:1,2017-10-02T18:00:00Z,24.9180,-80.7470,1.5,34.66,1111122 
ENP,ioos.station.NOAA.NDBC:PKYF1:1,2017-10-02T19:00:00Z,24.9180,-80.7470,1.5,34.58,1111122 
ENP,ioos.station.NOAA.NDBC:PKYF1:1,2017-10-02T20:00:00Z,24.9180,-80.7470,1.5,34.58,1111122 
ENP,ioos.station.NOAA.NDBC:PKYF1:1,2017-10-02T21:00:00Z,24.9180,-80.7470,1.5,34.51,1111122 
ENP,ioos.station.NOAA.NDBC:PKYF1:1,2017-10-02T22:00:00Z,24.9180,-80.7470,1.5,34.58,1111122 
ENP,ioos.station.NOAA.NDBC:PKYF1:1,2017-10-02T23:00:00Z,24.9180,-80.7470,1.5,34.51,1111122 
ENP,ioos.station.NOAA.NDBC:PKYF1:1,2017-10-03T00:00:00Z,24.9180,-80.7470,1.5,34.58,1111122 
ENP,ioos.station.NOAA.NDBC:PKYF1:1,2017-10-03T01:00:00Z,24.9180,-80.7470,1.5,34.66,1111122 
ENP,ioos.station.NOAA.NDBC:PKYF1:1,2017-10-03T03:00:00Z,24.9180,-80.7470,1.5,34.58,1111122 
ENP,ioos.station.NOAA.NDBC:PKYF1:1,2017-10-03T04:00:00Z,24.9180,-80.7470,1.5,34.51,1111122 
ENP,ioos.station.NOAA.NDBC:PKYF1:1,2017-10-03T07:00:00Z,24.9180,-80.7470,1.5,34.58,1111122 
ENP,ioos.station.NOAA.NDBC:PKYF1:1,2017-10-03T08:00:00Z,24.9180,-80.7470,1.5,34.58,1111122 
ENP,ioos.station.NOAA.NDBC:PKYF1:1,2017-10-03T09:00:00Z,24.9180,-80.7470,1.5,34.51,1111122 
ENP,ioos.station.NOAA.NDBC:PKYF1:1,2017-10-03T12:00:00Z,24.9180,-80.7470,1.5,34.58,1111122 
ENP,ioos.station.NOAA.NDBC:PKYF1:1,2017-10-03T13:00:00Z,24.9180,-80.7470,1.5,34.51,1111122 
ENP,ioos.station.NOAA.NDBC:PKYF1:1,2017-10-03T14:00:00Z,24.9180,-80.7470,1.5,34.58,1111122 
ENP,ioos.station.NOAA.NDBC:PKYF1:1,2017-10-03T15:00:00Z,24.9180,-80.7470,1.5,34.73,1111122 
ENP,ioos.station.NOAA.NDBC:PKYF1:1,2017-10-03T16:00:00Z,24.9180,-80.7470,1.5,34.88,1111122 
ENP,ioos.station.NOAA.NDBC:PKYF1:1,2017-10-03T17:00:00Z,24.9180,-80.7470,1.5,34.95,1111122 
ENP,ioos.station.NOAA.NDBC:PKYF1:1,2017-10-03T18:00:00Z,24.9180,-80.7470,1.5,34.58,1111122 
ENP,ioos.station.NOAA.NDBC:PKYF1:1,2017-10-03T19:00:00Z,24.9180,-80.7470,1.5,34.66,1111122 
ENP,ioos.station.NOAA.NDBC:PKYF1:1,2017-10-03T20:00:00Z,24.9180,-80.7470,1.5,34.66,1111122 
ENP,ioos.station.NOAA.NDBC:PKYF1:1,2017-10-03T21:00:00Z,24.9180,-80.7470,1.5,34.66,1111122 
ENP,ioos.station.NOAA.NDBC:PKYF1:1,2017-10-03T22:00:00Z,24.9180,-80.7470,1.5,34.66,1111122 
ENP,ioos.station.NOAA.NDBC:PKYF1:1,2017-10-03T23:00:00Z,24.9180,-80.7470,1.5,34.66,1111122 
ENP,ioos.station.NOAA.NDBC:PKYF1:1,2017-10-04T00:00:00Z,24.9180,-80.7470,1.5,34.66,1111122 
ENP,ioos.station.NOAA.NDBC:PKYF1:1,2017-10-04T01:00:00Z,24.9180,-80.7470,1.5,34.8,1111122 
ENP,ioos.station.NOAA.NDBC:PKYF1:1,2017-10-04T03:00:00Z,24.9180,-80.7470,1.5,34.51,1111122 
ENP,ioos.station.NOAA.NDBC:PKYF1:1,2017-10-04T04:00:00Z,24.9180,-80.7470,1.5,34.58,1111122 
ENP,ioos.station.NOAA.NDBC:PKYF1:1,2017-10-04T06:00:00Z,24.9180,-80.7470,1.5,34.8,1111122 
ENP,ioos.station.NOAA.NDBC:PKYF1:1,2017-10-04T07:00:00Z,24.9180,-80.7470,1.5,34.88,1111122 
ENP,ioos.station.NOAA.NDBC:PKYF1:1,2017-10-04T08:00:00Z,24.9180,-80.7470,1.5,34.88,1111122 
ENP,ioos.station.NOAA.NDBC:PKYF1:1,2017-10-04T12:00:00Z,24.9180,-80.7470,1.5,34.58,1111122 
ENP,ioos.station.NOAA.NDBC:PKYF1:1,2017-10-04T13:00:00Z,24.9180,-80.7470,1.5,34.73,1111122 
ENP,ioos.station.NOAA.NDBC:PKYF1:1,2017-10-04T14:00:00Z,24.9180,-80.7470,1.5,34.73,1111122 
ENP,ioos.station.NOAA.NDBC:PKYF1:1,2017-10-04T15:00:00Z,24.9180,-80.7470,1.5,34.88,1111122 
ENP,ioos.station.NOAA.NDBC:PKYF1:1,2017-10-04T16:00:00Z,24.9180,-80.7470,1.5,34.95,1111122 
ENP,ioos.station.NOAA.NDBC:PKYF1:1,2017-10-04T17:00:00Z,24.9180,-80.7470,1.5,34.88,1111122 
ENP,ioos.station.NOAA.NDBC:PKYF1:1,2017-10-04T18:00:00Z,24.9180,-80.7470,1.5,34.8,1111122 
ENP,ioos.station.NOAA.NDBC:PKYF1:1,2017-10-04T19:00:00Z,24.9180,-80.7470,1.5,34.88,1111122 
ENP,ioos.station.NOAA.NDBC:PKYF1:1,2017-10-04T20:00:00Z,24.9180,-80.7470,1.5,34.88,1111122 
ENP,ioos.station.NOAA.NDBC:PKYF1:1,2017-10-04T21:00:00Z,24.9180,-80.7470,1.5,34.88,1111122 
ENP,ioos.station.NOAA.NDBC:PKYF1:1,2017-10-04T22:00:00Z,24.9180,-80.7470,1.5,34.95,1111122 
ENP,ioos.station.NOAA.NDBC:PKYF1:1,2017-10-04T23:00:00Z,24.9180,-80.7470,1.5,34.95,1111122 
ENP,ioos.station.NOAA.NDBC:PKYF1:1,2017-10-05T00:00:00Z,24.9180,-80.7470,1.5,34.95,1111122 
ENP,ioos.station.NOAA.NDBC:PKYF1:1,2017-10-05T01:00:00Z,24.9180,-80.7470,1.5,34.95,1111122 
ENP,ioos.station.NOAA.NDBC:PKYF1:1,2017-10-05T03:00:00Z,24.9180,-80.7470,1.5,35.1,1111122 
ENP,ioos.station.NOAA.NDBC:PKYF1:1,2017-10-05T04:00:00Z,24.9180,-80.7470,1.5,35.1,1111122 
ENP,ioos.station.NOAA.NDBC:PKYF1:1,2017-10-05T06:00:00Z,24.9180,-80.7470,1.5,35.4,1111122 
ENP,ioos.station.NOAA.NDBC:PKYF1:1,2017-10-05T07:00:00Z,24.9180,-80.7470,1.5,35.17,1111122 
ENP,ioos.station.NOAA.NDBC:PKYF1:1,2017-10-05T08:00:00Z,24.9180,-80.7470,1.5,35.17,1111122 
ENP,ioos.station.NOAA.NDBC:PKYF1:1,2017-10-05T09:00:00Z,24.9180,-80.7470,1.5,35.17,1111122 
ENP,ioos.station.NOAA.NDBC:PKYF1:1,2017-10-05T11:00:00Z,24.9180,-80.7470,1.5,35.17,1111122 
ENP,ioos.station.NOAA.NDBC:PKYF1:1,2017-10-05T13:00:00Z,24.9180,-80.7470,1.5,34.95,1111122 
ENP,ioos.station.NOAA.NDBC:PKYF1:1,2017-10-05T14:00:00Z,24.9180,-80.7470,1.5,34.95,1111122 
ENP,ioos.station.NOAA.NDBC:PKYF1:1,2017-10-05T15:00:00Z,24.9180,-80.7470,1.5,34.8,1111122 
ENP,ioos.station.NOAA.NDBC:PKYF1:1,2017-10-05T16:00:00Z,24.9180,-80.7470,1.5,34.51,1111122 
ENP,ioos.station.NOAA.NDBC:PKYF1:1,2017-10-05T17:00:00Z,24.9180,-80.7470,1.5,34.51,1111122 
ENP,ioos.station.NOAA.NDBC:PKYF1:1,2017-10-05T18:00:00Z,24.9180,-80.7470,1.5,34.51,1111122 
ENP,ioos.station.NOAA.NDBC:PKYF1:1,2017-10-05T19:00:00Z,24.9180,-80.7470,1.5,34.51,1111122 
ENP,ioos.station.NOAA.NDBC:PKYF1:1,2017-10-05T20:00:00Z,24.9180,-80.7470,1.5,34.58,1111122 
ENP,ioos.station.NOAA.NDBC:PKYF1:1,2017-10-05T21:00:00Z,24.9180,-80.7470,1.5,34.66,1111122 
ENP,ioos.station.NOAA.NDBC:PKYF1:1,2017-10-05T22:00:00Z,24.9180,-80.7470,1.5,34.73,1111122 
ENP,ioos.station.NOAA.NDBC:PKYF1:1,2017-10-05T23:00:00Z,24.9180,-80.7470,1.5,34.73,1111122 
ENP,ioos.station.NOAA.NDBC:PKYF1:1,2017-10-06T00:00:00Z,24.9180,-80.7470,1.5,34.73,1111122 
ENP,ioos.station.NOAA.NDBC:PKYF1:1,2017-10-06T01:00:00Z,24.9180,-80.7470,1.5,34.8,1111122 
ENP,ioos.station.NOAA.NDBC:PKYF1:1,2017-10-06T03:00:00Z,24.9180,-80.7470,1.5,34.88,1111122 
ENP,ioos.station.NOAA.NDBC:PKYF1:1,2017-10-06T04:00:00Z,24.9180,-80.7470,1.5,34.8,1111122 
ENP,ioos.station.NOAA.NDBC:PKYF1:1,2017-10-06T06:00:00Z,24.9180,-80.7470,1.5,34.8,1111122 
ENP,ioos.station.NOAA.NDBC:PKYF1:1,2017-10-06T07:00:00Z,24.9180,-80.7470,1.5,34.8,1111122 
ENP,ioos.station.NOAA.NDBC:PKYF1:1,2017-10-06T09:00:00Z,24.9180,-80.7470,1.5,34.95,1111122 
ENP,ioos.station.NOAA.NDBC:PKYF1:1,2017-10-06T10:00:00Z,24.9180,-80.7470,1.5,34.88,1111122 
ENP,ioos.station.NOAA.NDBC:PKYF1:1,2017-10-06T12:00:00Z,24.9180,-80.7470,1.5,34.73,1111122 
ENP,ioos.station.NOAA.NDBC:PKYF1:1,2017-10-06T13:00:00Z,24.9180,-80.7470,1.5,34.66,1111122 
ENP,ioos.station.NOAA.NDBC:PKYF1:1,2017-10-06T14:00:00Z,24.9180,-80.7470,1.5,34.73,1111122 
ENP,ioos.station.NOAA.NDBC:PKYF1:1,2017-10-06T15:00:00Z,24.9180,-80.7470,1.5,34.66,1111122 
ENP,ioos.station.NOAA.NDBC:PKYF1:1,2017-10-06T16:00:00Z,24.9180,-80.7470,1.5,34.8,1111122 
ENP,ioos.station.NOAA.NDBC:PKYF1:1,2017-10-06T17:00:00Z,24.9180,-80.7470,1.5,34.88,1111122 
ENP,ioos.station.NOAA.NDBC:PKYF1:1,2017-10-06T18:00:00Z,24.9180,-80.7470,1.5,34.8,1111122 
ENP,ioos.station.NOAA.NDBC:PKYF1:1,2017-10-06T19:00:00Z,24.9180,-80.7470,1.5,34.88,1111122 
ENP,ioos.station.NOAA.NDBC:PKYF1:1,2017-10-06T20:00:00Z,24.9180,-80.7470,1.5,34.88,1111122 
ENP,ioos.station.NOAA.NDBC:PKYF1:1,2017-10-06T21:00:00Z,24.9180,-80.7470,1.5,34.88,1111122 
ENP,ioos.station.NOAA.NDBC:PKYF1:1,2017-10-06T22:00:00Z,24.9180,-80.7470,1.5,34.8,1111122 
ENP,ioos.station.NOAA.NDBC:PKYF1:1,2017-10-06T23:00:00Z,24.9180,-80.7470,1.5,34.73,1111122 
ENP,ioos.station.NOAA.NDBC:PKYF1:1,2017-10-07T00:00:00Z,24.9180,-80.7470,1.5,34.73,1111122 
ENP,ioos.station.NOAA.NDBC:PKYF1:1,2017-10-07T01:00:00Z,24.9180,-80.7470,1.5,34.66,1111122 
ENP,ioos.station.NOAA.NDBC:PKYF1:1,2017-10-07T03:00:00Z,24.9180,-80.7470,1.5,34.73,1111122 
ENP,ioos.station.NOAA.NDBC:PKYF1:1,2017-10-07T04:00:00Z,24.9180,-80.7470,1.5,34.73,1111122 
ENP,ioos.station.NOAA.NDBC:PKYF1:1,2017-10-07T06:00:00Z,24.9180,-80.7470,1.5,34.8,1111122 
ENP,ioos.station.NOAA.NDBC:PKYF1:1,2017-10-07T07:00:00Z,24.9180,-80.7470,1.5,34.8,1111122 
ENP,ioos.station.NOAA.NDBC:PKYF1:1,2017-10-07T08:00:00Z,24.9180,-80.7470,1.5,34.8,1111122 
ENP,ioos.station.NOAA.NDBC:PKYF1:1,2017-10-07T09:00:00Z,24.9180,-80.7470,1.5,34.73,1111122 
ENP,ioos.station.NOAA.NDBC:PKYF1:1,2017-10-07T11:00:00Z,24.9180,-80.7470,1.5,34.58,1111122 
ENP,ioos.station.NOAA.NDBC:PKYF1:1,2017-10-07T12:00:00Z,24.9180,-80.7470,1.5,34.66,1111122 
ENP,ioos.station.NOAA.NDBC:PKYF1:1,2017-10-07T13:00:00Z,24.9180,-80.7470,1.5,34.66,1111122 
ENP,ioos.station.NOAA.NDBC:PKYF1:1,2017-10-07T14:00:00Z,24.9180,-80.7470,1.5,34.66,1111122 
ENP,ioos.station.NOAA.NDBC:PKYF1:1,2017-10-07T15:00:00Z,24.9180,-80.7470,1.5,34.58,1111122 
ENP,ioos.station.NOAA.NDBC:PKYF1:1,2017-10-07T16:00:00Z,24.9180,-80.7470,1.5,34.66,1111122 
ENP,ioos.station.NOAA.NDBC:PKYF1:1,2017-10-07T17:00:00Z,24.9180,-80.7470,1.5,34.66,1111122 
ENP,ioos.station.NOAA.NDBC:PKYF1:1,2017-10-07T18:00:00Z,24.9180,-80.7470,1.5,34.66,1111122 
ENP,ioos.station.NOAA.NDBC:PKYF1:1,2017-10-07T19:00:00Z,24.9180,-80.7470,1.5,34.58,1111122 
ENP,ioos.station.NOAA.NDBC:PKYF1:1,2017-10-07T20:00:00Z,24.9180,-80.7470,1.5,34.58,1111122 
ENP,ioos.station.NOAA.NDBC:PKYF1:1,2017-10-07T21:00:00Z,24.9180,-80.7470,1.5,34.58,1111122 
ENP,ioos.station.NOAA.NDBC:PKYF1:1,2017-10-07T22:00:00Z,24.9180,-80.7470,1.5,34.58,1111122 
ENP,ioos.station.NOAA.NDBC:PKYF1:1,2017-10-07T23:00:00Z,24.9180,-80.7470,1.5,34.66,1111122 
ENP,ioos.station.NOAA.NDBC:PKYF1:1,2017-10-08T00:00:00Z,24.9180,-80.7470,1.5,34.66,1111122 
ENP,ioos.station.NOAA.NDBC:PKYF1:1,2017-10-08T01:00:00Z,24.9180,-80.7470,1.5,34.66,1111122 
ENP,ioos.station.NOAA.NDBC:PKYF1:1,2017-10-08T03:00:00Z,24.9180,-80.7470,1.5,34.66,1111122 
ENP,ioos.station.NOAA.NDBC:PKYF1:1,2017-10-08T04:00:00Z,24.9180,-80.7470,1.5,34.58,1111122 
ENP,ioos.station.NOAA.NDBC:PKYF1:1,2017-10-08T05:00:00Z,24.9180,-80.7470,1.5,34.66,1111122 
ENP,ioos.station.NOAA.NDBC:PKYF1:1,2017-10-08T07:00:00Z,24.9180,-80.7470,1.5,34.66,1111122 
ENP,ioos.station.NOAA.NDBC:PKYF1:1,2017-10-08T08:00:00Z,24.9180,-80.7470,1.5,34.66,1111122 
ENP,ioos.station.NOAA.NDBC:PKYF1:1,2017-10-08T09:00:00Z,24.9180,-80.7470,1.5,34.66,1111122 
ENP,ioos.station.NOAA.NDBC:PKYF1:1,2017-10-08T11:00:00Z,24.9180,-80.7470,1.5,34.58,1111122 
ENP,ioos.station.NOAA.NDBC:PKYF1:1,2017-10-08T12:00:00Z,24.9180,-80.7470,1.5,34.58,1111122 
ENP,ioos.station.NOAA.NDBC:PKYF1:1,2017-10-08T13:00:00Z,24.9180,-80.7470,1.5,34.58,1111122 
ENP,ioos.station.NOAA.NDBC:PKYF1:1,2017-10-08T14:00:00Z,24.9180,-80.7470,1.5,34.66,1111122 
ENP,ioos.station.NOAA.NDBC:PKYF1:1,2017-10-08T16:00:00Z,24.9180,-80.7470,1.5,34.73,1111122 
ENP,ioos.station.NOAA.NDBC:PKYF1:1,2017-10-08T17:00:00Z,24.9180,-80.7470,1.5,34.66,1111122 
ENP,ioos.station.NOAA.NDBC:PKYF1:1,2017-10-08T18:00:00Z,24.9180,-80.7470,1.5,34.73,1111122 
ENP,ioos.station.NOAA.NDBC:PKYF1:1,2017-10-08T19:00:00Z,24.9180,-80.7470,1.5,34.73,1111122 
ENP,ioos.station.NOAA.NDBC:PKYF1:1,2017-10-08T20:00:00Z,24.9180,-80.7470,1.5,34.73,1111122 
ENP,ioos.station.NOAA.NDBC:PKYF1:1,2017-10-08T21:00:00Z,24.9180,-80.7470,1.5,34.8,1111122 
ENP,ioos.station.NOAA.NDBC:PKYF1:1,2017-10-08T22:00:00Z,24.9180,-80.7470,1.5,34.73,1111122 
ENP,ioos.station.NOAA.NDBC:PKYF1:1,2017-10-08T23:00:00Z,24.9180,-80.7470,1.5,34.8,1111122 
ENP,ioos.station.NOAA.NDBC:PKYF1:1,2017-10-09T00:00:00Z,24.9180,-80.7470,1.5,34.8,1111122 
ENP,ioos.station.NOAA.NDBC:PKYF1:1,2017-10-09T01:00:00Z,24.9180,-80.7470,1.5,34.66,1111122 
ENP,ioos.station.NOAA.NDBC:PKYF1:1,2017-10-09T03:00:00Z,24.9180,-80.7470,1.5,34.73,1111122 
ENP,ioos.station.NOAA.NDBC:PKYF1:1,2017-10-09T04:00:00Z,24.9180,-80.7470,1.5,34.8,1111122 
ENP,ioos.station.NOAA.NDBC:PKYF1:1,2017-10-09T05:00:00Z,24.9180,-80.7470,1.5,34.88,1111122 
ENP,ioos.station.NOAA.NDBC:PKYF1:1,2017-10-09T07:00:00Z,24.9180,-80.7470,1.5,34.88,1111122 
ENP,ioos.station.NOAA.NDBC:PKYF1:1,2017-10-09T08:00:00Z,24.9180,-80.7470,1.5,34.14,1111122 
ENP,ioos.station.NOAA.NDBC:PKYF1:1,2017-10-09T11:00:00Z,24.9180,-80.7470,1.5,34.73,1111122 
ENP,ioos.station.NOAA.NDBC:PKYF1:1,2017-10-09T12:00:00Z,24.9180,-80.7470,1.5,34.58,1111122 
ENP,ioos.station.NOAA.NDBC:PKYF1:1,2017-10-09T13:00:00Z,24.9180,-80.7470,1.5,34.29,1111122 
ENP,ioos.station.NOAA.NDBC:PKYF1:1,2017-10-09T14:00:00Z,24.9180,-80.7470,1.5,34.07,1111122 
ENP,ioos.station.NOAA.NDBC:PKYF1:1,2017-10-09T15:00:00Z,24.9180,-80.7470,1.5,34.0,1111122 
ENP,ioos.station.NOAA.NDBC:PKYF1:1,2017-10-09T16:00:00Z,24.9180,-80.7470,1.5,34.0,1111122 
ENP,ioos.station.NOAA.NDBC:PKYF1:1,2017-10-09T17:00:00Z,24.9180,-80.7470,1.5,34.07,1111122 
ENP,ioos.station.NOAA.NDBC:PKYF1:1,2017-10-09T19:00:00Z,24.9180,-80.7470,1.5,34.51,1111122 
ENP,ioos.station.NOAA.NDBC:PKYF1:1,2017-10-09T20:00:00Z,24.9180,-80.7470,1.5,34.88,1111122 
ENP,ioos.station.NOAA.NDBC:PKYF1:1,2017-10-09T21:00:00Z,24.9180,-80.7470,1.5,34.95,1111122 
ENP,ioos.station.NOAA.NDBC:PKYF1:1,2017-10-09T22:00:00Z,24.9180,-80.7470,1.5,34.95,1111122 
ENP,ioos.station.NOAA.NDBC:PKYF1:1,2017-10-09T23:00:00Z,24.9180,-80.7470,1.5,34.95,1111122 
ENP,ioos.station.NOAA.NDBC:PKYF1:1,2017-10-10T00:00:00Z,24.9180,-80.7470,1.5,34.88,1111122 
ENP,ioos.station.NOAA.NDBC:PKYF1:1,2017-10-10T01:00:00Z,24.9180,-80.7470,1.5,34.88,1111122 
ENP,ioos.station.NOAA.NDBC:PKYF1:1,2017-10-10T03:00:00Z,24.9180,-80.7470,1.5,34.8,1111122 
ENP,ioos.station.NOAA.NDBC:PKYF1:1,2017-10-10T04:00:00Z,24.9180,-80.7470,1.5,34.95,1111122 
ENP,ioos.station.NOAA.NDBC:PKYF1:1,2017-10-10T06:00:00Z,24.9180,-80.7470,1.5,35.03,1111122 
ENP,ioos.station.NOAA.NDBC:PKYF1:1,2017-10-10T07:00:00Z,24.9180,-80.7470,1.5,35.03,1111122 
ENP,ioos.station.NOAA.NDBC:PKYF1:1,2017-10-10T08:00:00Z,24.9180,-80.7470,1.5,35.03,1111122 
ENP,ioos.station.NOAA.NDBC:PKYF1:1,2017-10-10T09:00:00Z,24.9180,-80.7470,1.5,35.03,1111122 
ENP,ioos.station.NOAA.NDBC:PKYF1:1,2017-10-10T10:00:00Z,24.9180,-80.7470,1.5,35.03,1111122 
ENP,ioos.station.NOAA.NDBC:PKYF1:1,2017-10-10T12:00:00Z,24.9180,-80.7470,1.5,34.95,1111122 
ENP,ioos.station.NOAA.NDBC:PKYF1:1,2017-10-10T13:00:00Z,24.9180,-80.7470,1.5,34.8,1111122 
ENP,ioos.station.NOAA.NDBC:PKYF1:1,2017-10-10T14:00:00Z,24.9180,-80.7470,1.5,34.66,1111122 
ENP,ioos.station.NOAA.NDBC:PKYF1:1,2017-10-10T15:00:00Z,24.9180,-80.7470,1.5,34.58,1111122 
ENP,ioos.station.NOAA.NDBC:PKYF1:1,2017-10-10T16:00:00Z,24.9180,-80.7470,1.5,34.51,1111122 
ENP,ioos.station.NOAA.NDBC:PKYF1:1,2017-10-10T17:00:00Z,24.9180,-80.7470,1.5,34.51,1111122 
ENP,ioos.station.NOAA.NDBC:PKYF1:1,2017-10-10T18:00:00Z,24.9180,-80.7470,1.5,34.44,1111122 
ENP,ioos.station.NOAA.NDBC:PKYF1:1,2017-10-10T19:00:00Z,24.9180,-80.7470,1.5,34.51,1111122 
ENP,ioos.station.NOAA.NDBC:PKYF1:1,2017-10-10T20:00:00Z,24.9180,-80.7470,1.5,34.58,1111122 
ENP,ioos.station.NOAA.NDBC:PKYF1:1,2017-10-10T21:00:00Z,24.9180,-80.7470,1.5,34.51,1111122 
ENP,ioos.station.NOAA.NDBC:PKYF1:1,2017-10-10T22:00:00Z,24.9180,-80.7470,1.5,34.36,1111122 
ENP,ioos.station.NOAA.NDBC:PKYF1:1,2017-10-10T23:00:00Z,24.9180,-80.7470,1.5,34.29,1111122 
ENP,ioos.station.NOAA.NDBC:PKYF1:1,2017-10-11T00:00:00Z,24.9180,-80.7470,1.5,34.22,1111122 
ENP,ioos.station.NOAA.NDBC:PKYF1:1,2017-10-11T01:00:00Z,24.9180,-80.7470,1.5,34.22,1111122 
ENP,ioos.station.NOAA.NDBC:PKYF1:1,2017-10-11T03:00:00Z,24.9180,-80.7470,1.5,34.22,1111122 
ENP,ioos.station.NOAA.NDBC:PKYF1:1,2017-10-11T04:00:00Z,24.9180,-80.7470,1.5,34.29,1111122 
ENP,ioos.station.NOAA.NDBC:PKYF1:1,2017-10-11T06:00:00Z,24.9180,-80.7470,1.5,34.58,1111122 
ENP,ioos.station.NOAA.NDBC:PKYF1:1,2017-10-11T07:00:00Z,24.9180,-80.7470,1.5,34.66,1111122 
ENP,ioos.station.NOAA.NDBC:PKYF1:1,2017-10-11T08:00:00Z,24.9180,-80.7470,1.5,34.58,1111122 
ENP,ioos.station.NOAA.NDBC:PKYF1:1,2017-10-11T09:00:00Z,24.9180,-80.7470,1.5,34.73,1111122 
ENP,ioos.station.NOAA.NDBC:PKYF1:1,2017-10-11T11:00:00Z,24.9180,-80.7470,1.5,34.73,1111122 
ENP,ioos.station.NOAA.NDBC:PKYF1:1,2017-10-11T14:00:00Z,24.9180,-80.7470,1.5,34.44,1111122 
ENP,ioos.station.NOAA.NDBC:PKYF1:1,2017-10-11T15:00:00Z,24.9180,-80.7470,1.5,34.29,1111122 
ENP,ioos.station.NOAA.NDBC:PKYF1:1,2017-10-11T16:00:00Z,24.9180,-80.7470,1.5,34.14,1111122 
ENP,ioos.station.NOAA.NDBC:PKYF1:1,2017-10-11T17:00:00Z,24.9180,-80.7470,1.5,34.07,1111122 
ENP,ioos.station.NOAA.NDBC:PKYF1:1,2017-10-11T18:00:00Z,24.9180,-80.7470,1.5,34.07,1111122 
ENP,ioos.station.NOAA.NDBC:PKYF1:1,2017-10-11T19:00:00Z,24.9180,-80.7470,1.5,34.14,1111122 
ENP,ioos.station.NOAA.NDBC:PKYF1:1,2017-10-11T20:00:00Z,24.9180,-80.7470,1.5,34.14,1111122 
ENP,ioos.station.NOAA.NDBC:PKYF1:1,2017-10-11T21:00:00Z,24.9180,-80.7470,1.5,34.29,1111122 
ENP,ioos.station.NOAA.NDBC:PKYF1:1,2017-10-11T22:00:00Z,24.9180,-80.7470,1.5,34.44,1111122 
ENP,ioos.station.NOAA.NDBC:PKYF1:1,2017-10-11T23:00:00Z,24.9180,-80.7470,1.5,34.36,1111122 
ENP,ioos.station.NOAA.NDBC:PKYF1:1,2017-10-12T00:00:00Z,24.9180,-80.7470,1.5,34.29,1111122 
ENP,ioos.station.NOAA.NDBC:PKYF1:1,2017-10-12T01:00:00Z,24.9180,-80.7470,1.5,34.22,1111122 
ENP,ioos.station.NOAA.NDBC:PKYF1:1,2017-10-12T03:00:00Z,24.9180,-80.7470,1.5,34.14,1111122 
ENP,ioos.station.NOAA.NDBC:PKYF1:1,2017-10-12T04:00:00Z,24.9180,-80.7470,1.5,34.14,1111122 
ENP,ioos.station.NOAA.NDBC:PKYF1:1,2017-10-12T06:00:00Z,24.9180,-80.7470,1.5,34.29,1111122 
ENP,ioos.station.NOAA.NDBC:PKYF1:1,2017-10-12T07:00:00Z,24.9180,-80.7470,1.5,34.29,1111122 
ENP,ioos.station.NOAA.NDBC:PKYF1:1,2017-10-12T08:00:00Z,24.9180,-80.7470,1.5,34.44,1111122 
ENP,ioos.station.NOAA.NDBC:PKYF1:1,2017-10-12T09:00:00Z,24.9180,-80.7470,1.5,34.36,1111122 
ENP,ioos.station.NOAA.NDBC:PKYF1:1,2017-10-12T11:00:00Z,24.9180,-80.7470,1.5,34.51,1111122 
ENP,ioos.station.NOAA.NDBC:PKYF1:1,2017-10-12T12:00:00Z,24.9180,-80.7470,1.5,34.44,1111122 
ENP,ioos.station.NOAA.NDBC:PKYF1:1,2017-10-12T13:00:00Z,24.9180,-80.7470,1.5,34.44,1111122 
ENP,ioos.station.NOAA.NDBC:PKYF1:1,2017-10-12T14:00:00Z,24.9180,-80.7470,1.5,34.36,1111122 
ENP,ioos.station.NOAA.NDBC:PKYF1:1,2017-10-12T15:00:00Z,24.9180,-80.7470,1.5,34.29,1111122 
ENP,ioos.station.NOAA.NDBC:PKYF1:1,2017-10-12T16:00:00Z,24.9180,-80.7470,1.5,34.29,1111122 
ENP,ioos.station.NOAA.NDBC:PKYF1:1,2017-10-12T17:00:00Z,24.9180,-80.7470,1.5,34.22,1111122 
ENP,ioos.station.NOAA.NDBC:PKYF1:1,2017-10-12T18:00:00Z,24.9180,-80.7470,1.5,34.22,1111122 
ENP,ioos.station.NOAA.NDBC:PKYF1:1,2017-10-12T19:00:00Z,24.9180,-80.7470,1.5,34.22,1111122 
ENP,ioos.station.NOAA.NDBC:PKYF1:1,2017-10-12T20:00:00Z,24.9180,-80.7470,1.5,34.14,1111122 
ENP,ioos.station.NOAA.NDBC:PKYF1:1,2017-10-12T21:00:00Z,24.9180,-80.7470,1.5,34.14,1111122 
ENP,ioos.station.NOAA.NDBC:PKYF1:1,2017-10-12T22:00:00Z,24.9180,-80.7470,1.5,34.14,1111122 
ENP,ioos.station.NOAA.NDBC:PKYF1:1,2017-10-12T23:00:00Z,24.9180,-80.7470,1.5,34.51,1111122 
ENP,ioos.station.NOAA.NDBC:PKYF1:1,2017-10-13T00:00:00Z,24.9180,-80.7470,1.5,34.73,1111122 
ENP,ioos.station.NOAA.NDBC:PKYF1:1,2017-10-13T01:00:00Z,24.9180,-80.7470,1.5,34.73,1111122 
ENP,ioos.station.NOAA.NDBC:PKYF1:1,2017-10-13T03:00:00Z,24.9180,-80.7470,1.5,34.8,1111122 
ENP,ioos.station.NOAA.NDBC:PKYF1:1,2017-10-13T04:00:00Z,24.9180,-80.7470,1.5,34.73,1111122 
ENP,ioos.station.NOAA.NDBC:PKYF1:1,2017-10-13T06:00:00Z,24.9180,-80.7470,1.5,34.8,1111122 
ENP,ioos.station.NOAA.NDBC:PKYF1:1,2017-10-13T07:00:00Z,24.9180,-80.7470,1.5,34.8,1111122 
ENP,ioos.station.NOAA.NDBC:PKYF1:1,2017-10-13T08:00:00Z,24.9180,-80.7470,1.5,34.58,1111122 
ENP,ioos.station.NOAA.NDBC:PKYF1:1,2017-10-13T09:00:00Z,24.9180,-80.7470,1.5,34.51,1111122 
ENP,ioos.station.NOAA.NDBC:PKYF1:1,2017-10-13T11:00:00Z,24.9180,-80.7470,1.5,34.8,1111122 
ENP,ioos.station.NOAA.NDBC:PKYF1:1,2017-10-13T12:00:00Z,24.9180,-80.7470,1.5,34.8,1111122 
ENP,ioos.station.NOAA.NDBC:PKYF1:1,2017-10-13T13:00:00Z,24.9180,-80.7470,1.5,34.73,1111122 
ENP,ioos.station.NOAA.NDBC:PKYF1:1,2017-10-13T14:00:00Z,24.9180,-80.7470,1.5,34.73,1111122 
ENP,ioos.station.NOAA.NDBC:PKYF1:1,2017-10-13T15:00:00Z,24.9180,-80.7470,1.5,34.58,1111122 
ENP,ioos.station.NOAA.NDBC:PKYF1:1,2017-10-13T16:00:00Z,24.9180,-80.7470,1.5,34.44,1111122 
ENP,ioos.station.NOAA.NDBC:PKYF1:1,2017-10-13T17:00:00Z,24.9180,-80.7470,1.5,34.51,1111122 
ENP,ioos.station.NOAA.NDBC:PKYF1:1,2017-10-13T18:00:00Z,24.9180,-80.7470,1.5,34.66,1111122 
ENP,ioos.station.NOAA.NDBC:PKYF1:1,2017-10-13T19:00:00Z,24.9180,-80.7470,1.5,34.66,1111122 
ENP,ioos.station.NOAA.NDBC:PKYF1:1,2017-10-13T20:00:00Z,24.9180,-80.7470,1.5,34.73,1111122 
ENP,ioos.station.NOAA.NDBC:PKYF1:1,2017-10-13T21:00:00Z,24.9180,-80.7470,1.5,34.73,1111122 
ENP,ioos.station.NOAA.NDBC:PKYF1:1,2017-10-13T22:00:00Z,24.9180,-80.7470,1.5,34.8,1111122 